[TLELIST] Archives

 

[TLELIST] Current TLEs

June 3rd 2024 PDT

HST 1 20580U 90037B 24155.17913958 .00006622 00000-0 31146-3 0 9998 2 20580 28.4686 78.9689 0002412 242.5077 117.5270 15.17555348675166 ISS (ZARYA) 1 25544U 98067A 24155.37185494 .00019028 00000-0 33077-3 0 9991 2 25544 51.6402 23.7695 0005819 272.6606 258.0010 15.50818298456406 CXO 1 25867U 99040B 24157.28330877 .00000335 00000-0 00000+0 0 9997 2 25867 40.8904 154.9052 8907266 295.6498 359.8869 0.37810327 25671 ...Continue Reading

[TLELIST] Current TLEs

June 3rd 2024 PDT

HST 1 20580U 90037B 24155.17913958 .00006622 00000-0 31146-3 0 9998 2 20580 28.4686 78.9689 0002412 242.5077 117.5270 15.17555348675166 ISS (ZARYA) 1 25544U 98067A 24155.37185494 .00019028 00000-0 33077-3 0 9991 2 25544 51.6402 23.7695 0005819 272.6606 258.0010 15.50818298456406 CXO 1 25867U 99040B 24157.28330877 .00000335 00000-0 00000+0 0 9997 2 25867 40.8904 154.9052 8907266 295.6498 359.8869 0.37810327 25671 ...Continue Reading

[TLELIST] Current TLEs

June 2nd 2024 PDT

HST 1 20580U 90037B 24154.12690863 .00006453 00000-0 30339-3 0 9994 2 20580 28.4684 86.0170 0002433 230.7982 129.2394 15.17542954675005 ISS (ZARYA) 1 25544U 98067A 24154.14112138 .00020290 00000-0 35270-3 0 9990 2 25544 51.6394 29.8703 0005731 264.9342 230.1734 15.50772906456215 CXO 1 25867U 99040B 24154.63990659 .00000428 00000-0 00000-0 0 9997 2 25867 40.8075 155.2457 8907848 295.3889 0.0934 0.37811928 14506 ...Continue Reading

[TLELIST] Current TLEs

June 1st 2024 PDT

HST 1 20580U 90037B 24152.94313893 .00006256 00000-0 29398-3 0 9991 2 20580 28.4682 93.9459 0002466 217.7278 142.3142 15.17529193674566 ISS (ZARYA) 1 25544U 98067A 24153.43921176 .00020913 00000-0 36363-3 0 9997 2 25544 51.6393 33.3528 0005658 261.4664 272.4771 15.50744573456103 CXO 1 25867U 99040B 24154.63990659 .00000428 00000-0 00000-0 0 9997 2 25867 40.8075 155.2457 8907848 295.3889 0.0934 0.37811928 14506 ...Continue Reading

[TLELIST] Current TLEs

June 1st 2024 PDT

HST 1 20580U 90037B 24152.94313893 .00006256 00000-0 29398-3 0 9991 2 20580 28.4682 93.9459 0002466 217.7278 142.3142 15.17529193674566 ISS (ZARYA) 1 25544U 98067A 24153.43921176 .00020913 00000-0 36363-3 0 9997 2 25544 51.6393 33.3528 0005658 261.4664 272.4771 15.50744573456103 CXO 1 25867U 99040B 24154.63990659 .00000428 00000-0 00000-0 0 9997 2 25867 40.8075 155.2457 8907848 295.3889 0.0934 0.37811928 14506 ...Continue Reading

[TLELIST] Current TLEs

May 31st 2024 PDT

HST 1 20580U 90037B 24151.95665545 .00007453 00000-0 35207-3 0 9991 2 20580 28.4680 100.5528 0002553 205.7246 154.3220 15.17522274674412 ISS (ZARYA) 1 25544U 98067A 24152.43739583 .00055549 00000-0 94858-3 0 9991 2 25544 51.6400 38.3231 0005888 256.9286 80.6207 15.50746198455941 CXO 1 25867U 99040B 24154.63990659 .00000428 00000-0 00000-0 0 9997 2 25867 40.8075 155.2457 8907848 295.3889 0.0934 0.37811928 14506 ...Continue Reading

[TLELIST] Current TLEs

May 30th 2024 PDT

HST 1 20580U 90037B 24150.90440046 .00005403 00000-0 25276-3 0 9990 2 20580 28.4679 107.6005 0002588 195.0318 165.0198 15.17506878674254 ISS (ZARYA) 1 25544U 98067A 24151.24358287 .00023833 00000-0 41437-3 0 9993 2 25544 51.6410 44.2435 0005614 252.0222 256.6947 15.50660859455763 CXO 1 25867U 99040B 24151.99324059 .00000613 00000-0 00000+0 0 9993 2 25867 40.7340 155.5526 8907069 295.1691 359.7812 0.37807376 25653 ...Continue Reading

[TLELIST] Current TLEs

May 29th 2024 PDT

HST 1 20580U 90037B 24150.18096971 .00004432 00000-0 20572-3 0 9999 2 20580 28.4677 112.4457 0002626 186.6342 173.4216 15.17498680674405 ISS (ZARYA) 1 25544U 98067A 24150.21064527 .00033630 00000-0 58144-3 0 9999 2 25544 51.6406 49.3674 0005989 245.3687 253.3943 15.50625638455603 CXO 1 25867U 99040B 24149.35049423 .00000720 00000-0 00000-0 0 9999 2 25867 40.6804 155.7827 8908050 295.0223 359.9343 0.37806773 14484 ...Continue Reading

[TLELIST] Current TLEs

May 28th 2024 PDT

HST 1 20580U 90037B 24148.93140153 .00004489 00000-0 20855-3 0 9997 2 20580 28.4672 120.8152 0002669 172.4313 187.6320 15.17487355673952 ISS (ZARYA) 1 25544U 98067A 24149.30135507 -.00047698 00000-0 -81638-3 0 9999 2 25544 51.6333 53.8841 0005962 243.6300 215.9869 15.50541192455469 CXO 1 25867U 99040B 24149.35049423 .00000720 00000-0 00000-0 0 9999 2 25867 40.6804 155.7827 8908050 295.0223 359.9343 0.37806773 14484 ...Continue Reading

[TLELIST] Current TLEs

May 27th 2024 PDT

HST 1 20580U 90037B 24147.35298597 .00005510 00000-0 25819-3 0 9999 2 20580 28.4669 131.3868 0002699 155.3883 204.6839 15.17472986673717 ISS (ZARYA) 1 25544U 98067A 24148.21684019 .00061977 00000-0 10641-2 0 9994 2 25544 51.6387 59.2528 0005857 237.6488 284.2921 15.50547023455291 CXO 1 25867U 99040B 24149.35049423 .00000720 00000-0 00000-0 0 9999 2 25867 40.6804 155.7827 8908050 295.0223 359.9343 0.37806773 14484 ...Continue Reading
  • This mailing list is a public mailing list - anyone may join or leave, at any time.
  • This mailing list is announce-only.

International Space Station (ISS) / Hubble Space Telescope (HST) / Chandra X-Ray Observatory Orbital Data via EMAIL

Privacy Policy:

Private list